Regional Weather Roundup
Issued by NWS

Home | Current Version | Previous Version | Text Only | Print | Product List | Glossary On
Versions: 1 2 3 4 5 6 7 8 9 10 11 12 13 14 15 16 17 18 19 20 21 22 23 24 25 26 27 28 29 30 31 32 33 34 35 36 37 38 39 40 41 42 43 44 45 46 47 48 49 50
213
ASUS43 KFSD 010010
RWRSD

WEATHER ROUNDUP FOR SOUTH DAKOTA
NATIONAL WEATHER SERVICE SIOUX FALLS SD
700 PM CDT FRI SEP 30 2016

NOTE: "FAIR" INDICATES FEW OR NO CLOUDS BELOW 12,000 FEET WITH NO
SIGNIFICANT WEATHER AND/OR OBSTRUCTIONS TO VISIBILITY.


SDZ001>005-009-010-012>017-010100-
NORTHWEST AND NORTH CENTRAL SOUTH DAKOTA

CITY           SKY/WX    TMP DP  RH WIND       PRES   REMARKS
BUFFALO          N/A     70  47  43 SE14      29.95S
FAITH            N/A     73  48  41 SE17G26   30.01S
MOBRIDGE       CLOUDY    69  44  40 SE17G26   30.06S
$$

SDZ012>016-024>037-041>051-057-063-072>074-010100-
SOUTHWEST AND SOUTH CENTRAL SOUTH DAKOTA

CITY           SKY/WX    TMP DP  RH WIND       PRES   REMARKS
RAPID CTY ARPT CLOUDY    68  52  56 SE3       30.02F
PIERRE         CLOUDY    69  45  41 SE17G24   30.06S
CUSTER         CLOUDY    65  46  50 S3        30.16S
ELLSWORTH AFB  CLOUDY    69  53  55 S5        30.01F
PHILIP         PTCLDY    73  48  41 SE14      30.02R
PINE RIDGE     MOCLDY    70  48  45 S9G18     30.07S
WINNER         FAIR      67  47  48 SE10      30.12R
$$

SDZ004>011-016>023-039-040-010100-
NORTHEAST SOUTH DAKOTA

CITY           SKY/WX    TMP DP  RH WIND       PRES   REMARKS
ABERDEEN       MOCLDY    69  44  40 SE14      30.15S
WATERTOWN      CLOUDY    65  45  48 SE8       30.19R
BROOKINGS      CLEAR     64  46  52 E7        30.18S
SISSETON         N/A     65  48  54 SE8       30.18S
$$

SDZ017-020-022-023-036>040-048>070-010100-
SOUTHEAST SOUTH DAKOTA

CITY           SKY/WX    TMP DP  RH WIND       PRES   REMARKS
SIOUX FALLS    MOCLDY    68  46  45 SE7       30.17F
HURON          PTCLDY    67  46  47 SE8       30.14F
CHAMBERLAIN    PTCLDY    68  47  47 SE9       30.12S
MITCHELL       PTCLDY    68  45  43 SE7       30.16S
YANKTON        CLOUDY    66  46  48 E6        30.15S
$$

ABBREVIATIONS USED IN REMARKS
   TC - TEMPERATURE IN CELSIUS
  WCI - WIND CHILL INDEX
   HX - HEAT INDEX
  VSB - VISIBILITY





USA.gov is the U.S. government's official web portal to all federal, state and local government web resources and services.